RH
24 27 31 22 17 20 22 24 31 37 41 45 45 45 48 48 49 59 74 87 88 73 76 70 62 72 84 83 62 48 59 47 55 85 66 58 64 56 52 48 42 36 34 32 29 29 32
18 20 24 28 32 24 20 22 24 30 36 40 44 43 45 50 54 50 57 63 85 90 80 83 82 83 82 79 58 46 60 47 66 80 63 56 57 51 43 42 40 36 33 30 27 28 28
16 15 17 18 22 28 34 25 21 24 30 33 38 42 44 48 53 56 51 53 61 80 84 74 84 88 84 66 58 47 47 67 58 75 62 52 59 48 40 40 35 33 34 28 28 27 29
15 14 14 14 14 15 19 32 33 20 26 30 35 37 41 43 50 53 55 58 57 61 89 81 85 85 74 70 58 48 46 81 79 77 62 49 60 55 35 33 31 35 36 42 29 28 27
14 13 12 12 12 13 15 24 35 24 21 27 32 36 37 40 44 50 51 64 66 70 87 87 89 83 70 55 55 49 46 48 72 68 57 49 55 39 32 41 44 41 46 35 29 32 28
14 14 13 13 13 14 16 24 35 32 17 24 29 32 36 39 41 46 48 62 64 69 72 73 66 66 50 53 50 46 46 48 51 48 55 45 38 44 46 50 46 45 43 34 28 32 33
15 15 14 13 13 15 18 24 34 32 16 19 23 27 33 37 40 42 42 56 62 59 66 62 58 57 53 50 46 46 48 48 53 46 48 41 58 55 43 41 39 34 34 34 34 35 34
15 16 15 13 13 18 21 26 31 31 17 18 23 22 28 35 38 40 42 49 55 54 55 54 52 50 48 48 48 45 48 43 39 50 43 47 55 39 35 32 32 28 30 28 35 31 32
14 15 15 14 17 22 26 27 30 26 19 25 24 26 25 32 36 39 43 51 46 45 52 44 46 46 47 44 44 45 45 39 39 38 41 51 46 44 35 34 34 34 30 28 27 32 32
16 14 14 16 22 28 30 26 33 29 23 27 32 29 30 30 35 44 49 53 51 45 74 41 40 40 43 42 41 43 42 38 43 47 50 53 50 38 38 39 35 32 40 33 35 33 34
19 17 15 15 25 34 34 28 31 36 25 27 32 31 32 34 38 44 46 49 45 53 71 34 38 40 40 35 39 41 42 40 45 53 46 52 53 40 37 47 44 33 40 40 32 40 34
22 19 16 14 21 34 35 33 26 36 32 29 32 33 35 36 34 34 36 41 52 67 58 44 37 39 34 34 37 38 40 39 46 48 52 57 55 58 52 52 49 60 44 49 54 49 54
22 21 16 14 19 33 32 32 31 30 38 31 28 35 29 42 42 44 38 46 75 66 37 41 46 42 36 37 35 34 39 44 47 58 64 47 51 55 54 47 42 38 49 66 54 62 53
22 21 18 14 17 30 29 26 29 30 38 30 31 40 41 37 43 38 44 50 55 42 48 50 48 37 34 34 36 36 39 44 43 47 61 62 59 58 61 53 45 40 37 61 37 45 39
22 19 18 16 20 27 28 26 24 28 33 39 31 38 43 44 49 50 55 78 51 45 59 61 39 31 32 32 33 38 40 44 39 41 38 44 54 61 62 57 45 40 45 36 56 52 41
22 19 18 17 21 25 26 25 23 23 29 42 43 40 52 44 53 55 61 67 61 57 52 52 39 34 31 32 33 34 40 45 42 37 38 38 57 60 60 54 47 36 38 40 56 28 26
22 21 19 18 21 26 26 26 23 21 25 39 47 39 48 38 44 38 72 58 58 48 46 47 46 40 34 32 33 40 38 46 50 42 35 44 44 61 58 57 56 45 42 43 37 32 24
22 22 20 18 19 21 26 26 24 20 21 32 45 46 39 37 34 67 61 56 49 44 40 43 42 39 35 36 36 40 43 50 55 51 31 32 54 77 51 50 51 46 40 37 42 31 42
21 22 20 19 18 20 22 25 24 21 20 26 32 35 37 31 40 51 52 43 41 38 36 39 34 38 33 34 32 45 51 58 54 47 36 33 33 50 33 35 41 57 55 42 45 50 48
22 19 18 18 18 19 21 25 25 21 19 23 26 46 33 38 40 40 34 35 30 37 37 38 34 31 31 29 37 44 49 55 53 48 44 36 35 26 36 24 44 53 58 47 40 59 39
23 20 16 16 16 18 21 24 26 24 20 22 27 49 46 48 51 48 40 36 40 38 35 35 26 29 28 23 24 32 46 45 50 52 45 31 24 36 33 32 41 37 34 62 52 41 34
26 24 18 15 16 18 21 24 26 26 21 21 28 33 53 57 58 55 57 48 46 43 42 42 40 33 33 27 21 21 35 36 26 50 42 46 30 47 28 63 41 40 38 45 60 54 48
26 28 28 19 16 22 24 24 24 26 24 22 26 34 43 55 61 51 50 44 44 46 43 43 44 49 50 42 38 43 30 36 38 39 47 39 53 57 48 66 64 57 65 52 44 52 46
49 57 49 45 31 26 28 29 28 28 26 23 25 31 39 40 66 56 52 51 50 49 46 49 48 49 46 50 51 55 57 59 51 49 49 50 51 64 72 57 61 40 55 54 45 42 46
86 84 76 63 52 48 36 37 33 30 27 25 24 29 38 46 50 49 55 55 58 57 59 57 52 51 52 55 66 63 69 69 72 76 60 57 66 66 66 76 56 58 57 58 57 58 62
100 98 91 75 64 60 56 42 36 33 29 26 25 26 35 44 40 40 54 59 65 70 65 64 62 58 58 72 70 60 57 56 72 81 69 70 66 64 83 76 68 46 45 41 46 60 64
98 96 94 84 77 69 66 60 42 36 33 28 26 27 33 46 36 45 58 60 58 67 70 71 66 65 63 81 77 82 71 62 69 83 89 76 74 75 82 88 74 58 54 48 60 52 64
98 98 97 94 86 82 73 74 52 38 35 32 32 32 33 41 32 36 47 55 62 63 69 62 68 76 83 81 83 76 84 75 74 72 81 80 85 84 84 87 83 56 51 59 59 66 63
96 90 89 95 93 84 84 82 69 45 36 35 33 33 38 45 39 41 43 47 58 63 58 64 61 64 64 83 88 86 86 90 82 81 76 77 64 69 66 65 60 61 60 63 63 63 66
Wind_Speed
15 17 17 14 11 8 7 7 8 8 8 8 9 10 12 14 17 23 15 14 9 1 1 3 6 8 10 7 4 4 4 9 19 11 11 9 8 5 4 5 7 3 2 3 2 4 4
14 15 15 16 14 11 9 8 9 8 9 9 9 8 9 11 12 15 18 18 13 7 1 4 7 9 10 2 2 3 3 11 14 12 12 10 6 6 3 6 5 8 4 2 2 3 4
15 16 16 17 16 15 14 10 9 8 10 9 9 8 8 8 10 11 13 14 16 11 7 4 7 9 8 5 1 2 3 9 12 11 10 11 4 4 2 3 5 8 5 2 2 1 2
14 16 17 17 18 18 18 16 10 9 8 9 9 8 7 8 9 11 12 12 11 13 5 0 4 6 3 2 3 1 2 8 13 11 9 11 6 4 3 6 4 4 5 4 1 0 1
13 14 15 17 18 19 21 20 12 8 7 7 8 9 8 7 7 8 10 8 10 11 9 6 6 1 2 0 2 2 2 4 9 9 8 9 4 2 2 5 4 5 4 3 1 2 1
12 14 16 18 19 21 22 22 16 7 5 6 7 8 8 7 5 5 7 4 7 9 11 11 6 4 4 3 1 2 5 6 6 11 6 5 2 2 3 2 8 5 6 2 4 1 3
12 14 16 18 20 22 24 23 18 8 3 5 6 7 8 7 5 4 4 2 2 2 5 2 5 2 2 5 7 4 5 6 10 8 3 2 4 3 7 5 5 6 6 5 1 2 2
10 12 15 17 20 22 25 24 18 9 3 5 6 6 7 7 5 4 2 3 7 6 5 5 3 5 4 2 3 6 8 3 4 3 3 5 3 3 3 4 5 4 7 3 2 2 2
10 12 14 16 18 21 25 24 17 11 5 7 8 7 6 6 5 3 1 2 2 2 3 3 3 4 4 4 2 5 9 6 4 3 2 5 2 1 2 3 5 3 5 4 3 2 3
11 13 15 16 17 19 23 25 17 10 6 6 11 13 4 3 4 3 3 2 2 1 4 5 3 1 2 3 3 7 4 2 4 4 3 4 4 2 3 3 1 4 1 5 6 3 2
10 13 14 16 18 19 21 24 19 12 4 5 11 16 3 2 1 2 4 3 2 1 5 7 2 1 2 1 6 2 1 1 4 3 4 0 3 3 3 1 2 3 2 4 3 4 3
8 11 13 14 16 19 20 21 22 13 8 4 9 14 6 2 3 4 5 2 1 5 1 4 3 1 1 1 1 4 1 3 4 4 6 2 2 3 1 2 2 6 5 7 4 3 2
8 9 12 14 15 16 18 20 20 14 11 5 6 10 7 2 2 1 2 2 5 6 3 3 1 3 2 1 2 2 2 3 2 4 3 4 3 3 3 4 2 4 5 3 3 3 4
10 10 10 12 14 16 17 19 21 17 7 4 5 7 9 6 2 4 3 4 7 0 2 3 3 1 3 1 2 2 4 2 1 5 3 4 3 2 4 1 4 1 4 5 6 4 3
9 11 12 12 14 16 18 20 22 20 9 3 1 5 8 5 3 0 1 5 1 1 3 5 4 1 2 0 3 2 1 4 3 3 4 4 1 3 2 2 1 3 2 3 7 3 2
7 8 11 13 13 14 16 18 21 21 15 4 2 3 9 6 2 1 4 4 4 4 1 2 2 2 2 2 2 2 2 1 2 1 2 4 4 1 2 1 3 1 4 3 2 4 4
8 9 9 11 13 14 16 17 19 21 18 7 1 0 10 5 2 2 3 2 3 2 1 1 2 2 2 2 1 2 4 2 2 2 2 4 3 2 1 4 5 2 1 4 3 2 4
7 8 10 10 11 12 14 16 18 19 19 11 3 2 8 2 4 3 2 1 2 2 2 2 1 2 2 1 1 1 2 1 2 2 3 1 4 3 3 1 1 1 2 3 4 4 2
11 9 9 9 9 11 12 15 16 17 17 12 2 2 5 4 3 1 1 2 1 2 2 3 2 2 2 3 2 2 1 0 2 1 1 2 0 2 5 2 2 4 4 3 4 2 5
11 12 11 11 11 10 11 12 13 14 15 12 3 2 3 4 4 4 2 2 1 1 1 1 2 2 1 1 2 4 4 3 1 3 2 2 2 3 5 1 3 4 4 4 4 3 5
13 13 13 12 13 12 11 10 12 13 13 10 4 0 1 2 3 1 1 1 2 3 2 1 1 1 2 3 2 2 1 1 1 2 1 4 2 1 3 3 2 2 3 7 8 3 5
15 14 14 13 12 13 13 12 10 11 11 6 4 1 0 2 2 1 1 3 2 2 4 3 3 1 2 2 2 4 2 2 3 1 2 1 3 3 3 2 4 4 8 8 7 4 8
17 15 14 14 14 12 13 12 11 11 10 4 3 2 2 1 1 2 4 3 3 1 3 3 4 4 2 4 3 1 4 1 2 2 4 1 5 2 4 3 3 7 7 10 4 2 5
18 16 16 15 14 14 13 13 12 10 8 7 5 4 1 3 1 3 3 4 3 3 2 2 4 2 1 3 2 1 1 1 1 3 3 3 2 1 2 3 1 2 2 4 5 3 6
18 17 17 16 15 14 13 12 12 11 9 7 6 3 2 2 4 4 4 3 1 3 3 3 4 3 2 1 2 2 2 2 1 4 1 2 3 1 2 2 6 2 1 2 4 1 3
20 20 19 17 16 14 13 12 11 11 10 9 7 6 4 2 5 5 3 4 3 2 3 2 2 4 3 2 1 3 4 3 3 2 3 5 4 3 2 3 6 2 2 2 1 0 2
24 23 21 20 18 15 14 13 12 12 11 10 9 7 5 4 6 6 5 4 5 4 3 2 3 4 5 1 2 4 4 3 3 5 5 3 1 5 4 4 7 5 4 2 3 4 4
28 26 24 24 21 19 16 16 14 13 12 11 11 9 9 6 10 12 10 9 6 6 4 5 2 2 3 2 3 3 3 3 2 2 5 6 6 4 2 1 8 4 3 4 2 3 3
26 29 29 28 24 22 20 18 17 16 14 13 13 11 11 11 8 8 10 14 16 12 6 10 3 4 10 3 2 2 3 1 3 3 1 3 4 3 7 4 1 3 3 3 2 3 1
Wind_Direction
36 35 29 23 10 348 324 321 316 311 311 324 340 354 355 359 7 23 37 33 28 22 103 177 178 179 171 196 227 342 307 199 186 190 187 184 189 182 188 180 143 182 189 167 164 161 166
36 34 29 27 20 1 335 317 310 310 304 305 312 335 344 348 3 19 39 35 25 15 76 149 156 165 186 208 273 358 16 180 188 184 191 184 198 221 206 185 177 190 140 133 135 135 133
29 31 25 21 16 9 359 332 306 305 303 303 297 312 327 342 354 4 14 29 33 27 24 163 163 176 201 208 72 33 39 177 191 190 198 192 201 241 205 142 162 139 107 83 54 180 115
28 29 25 18 11 6 3 354 322 297 299 305 300 297 313 333 352 2 10 17 31 32 36 187 149 182 245 286 219 44 18 167 175 192 196 193 200 284 231 148 81 103 63 138 299 290 67
28 24 23 16 9 6 2 356 347 303 288 300 309 302 290 304 339 359 14 40 47 35 60 92 117 146 301 111 219 282 157 175 175 179 176 178 203 261 159 123 66 17 158 160 159 28 327
24 19 18 15 10 7 3 1 357 329 297 289 305 312 301 297 305 344 8 79 60 74 96 70 38 8 29 115 113 97 129 153 149 159 156 155 177 63 28 114 183 162 115 109 159 252 42
21 16 13 13 10 8 5 1 3 355 332 289 292 312 313 301 299 319 13 8 35 36 36 306 295 266 354 109 104 176 132 132 136 137 132 115 85 205 212 190 173 138 122 145 127 2 148
16 12 11 12 12 10 6 5 2 6 359 341 325 297 303 307 295 315 46 89 78 89 71 72 34 16 102 120 113 161 156 137 120 124 127 50 189 209 141 136 131 112 121 125 63 55 121
9 7 8 11 13 14 9 7 8 2 12 12 14 330 281 293 310 328 360 113 183 296 53 66 99 101 112 104 98 159 168 142 128 124 157 149 226 248 164 128 109 45 137 165 138 118 72
359 3 3 6 11 15 14 9 9 7 9 23 12 359 310 260 312 326 328 311 236 251 78 324 330 129 191 208 62 159 218 172 55 149 112 112 299 186 127 102 92 136 155 117 121 95 188
355 357 2 2 5 11 15 15 7 4 360 355 359 4 32 179 312 332 319 317 313 223 58 306 318 354 159 179 142 46 189 151 126 117 109 246 1 74 83 51 333 147 116 103 95 96 97
356 354 357 4 6 5 11 16 14 3 351 334 344 356 23 47 306 287 301 311 104 44 305 352 324 345 91 65 92 121 101 81 109 85 43 61 356 56 100 39 46 153 79 53 57 80 40
342 354 356 359 4 7 7 12 16 13 3 353 358 2 14 34 43 39 274 144 37 91 294 297 314 8 70 9 69 86 71 30 138 77 19 9 340 342 45 77 32 72 69 30 24 14 213
331 342 357 360 0 3 8 11 12 13 17 9 25 28 31 35 64 117 158 57 70 109 274 352 293 226 115 5 25 85 113 111 33 83 115 151 316 6 356 37 190 124 147 151 176 181 234
327 339 350 359 2 3 9 10 10 11 9 25 286 24 9 20 14 337 245 54 191 265 335 349 311 93 16 96 147 90 50 170 181 173 160 146 301 318 41 330 54 183 163 137 106 14 46
319 337 344 353 1 4 6 10 10 10 11 3 310 319 4 350 12 292 74 157 198 215 224 125 351 84 229 201 136 107 187 221 161 142 166 199 97 355 303 328 43 201 149 79 1 147 229
308 325 337 347 355 359 2 7 9 11 9 14 31 238 359 4 25 58 96 228 272 266 293 203 158 308 340 315 349 203 187 159 205 188 169 154 101 271 8 211 187 125 232 50 112 112 165
288 312 327 338 345 350 355 360 5 9 11 2 339 26 1 56 52 40 69 180 344 319 333 305 293 167 154 41 309 289 275 342 9 325 190 191 126 159 200 260 233 212 219 159 131 209 75
288 301 310 320 329 339 348 352 357 2 6 4 15 16 4 30 86 42 220 294 275 348 346 358 306 302 251 172 157 178 147 218 12 30 156 188 233 57 353 355 354 228 197 132 105 94 199
279 288 301 308 314 325 335 343 350 353 359 1 348 32 53 54 70 123 161 143 342 261 278 320 295 338 280 268 308 189 191 215 154 141 109 130 127 181 191 189 126 199 193 190 149 139 174
272 284 292 301 307 313 323 333 341 348 351 355 2 71 104 314 15 46 2 239 168 146 181 90 8 56 345 311 292 262 271 200 195 181 120 130 197 127 265 241 208 243 183 186 206 187 192
264 274 283 288 294 303 314 323 332 338 346 350 348 347 358 149 162 138 6 238 234 261 169 163 159 225 163 245 241 312 183 226 226 288 153 336 211 156 235 175 190 254 232 205 221 226 260
263 273 280 282 285 287 297 307 316 329 345 343 350 337 293 217 143 124 206 184 227 245 252 262 188 144 215 223 205 218 204 303 304 183 189 145 138 123 268 9 318 287 235 192 177 170 181
261 273 280 289 286 284 289 301 308 317 327 334 323 316 288 279 200 222 201 188 216 220 250 265 230 194 218 159 164 227 233 236 165 94 117 132 101 76 269 359 283 259 56 156 182 207 217
265 267 277 283 291 293 292 298 300 302 308 309 313 297 257 261 240 287 236 223 165 273 257 235 233 255 194 208 18 0 330 348 54 46 144 104 125 132 216 223 292 91 327 131 168 67 344
264 268 269 276 283 290 292 290 291 296 296 297 289 281 248 174 244 224 177 206 186 203 317 241 227 203 203 76 100 228 237 233 228 175 75 98 92 135 134 204 236 200 213 209 211 287 232
260 261 265 269 273 276 282 282 273 274 280 283 277 267 241 251 251 216 207 195 180 168 181 228 185 180 193 112 215 211 246 195 223 188 168 133 161 194 184 227 279 218 223 182 155 195 168
258 255 257 262 265 268 270 276 272 265 262 267 267 255 239 223 260 248 235 217 202 200 161 158 104 212 89 174 191 239 220 245 285 154 182 173 156 195 128 181 271 174 127 171 153 121 158
268 257 254 255 259 262 263 269 269 264 259 257 262 258 248 235 254 253 244 244 242 239 220 192 233 179 192 126 201 148 219 173 182 249 353 240 195 186 194 221 325 167 84 116 109 107 134